Copenhagen, Denmark

12:07 PM CET on January 18, 2017 (GMT +0100)
Kastrup

Weather History for EKCH - December, 2012

Change the Weather History Date:

Thursday, December 13, 2012

  Actual Average Record
Temperature  
Mean Temperature 27 °F -  
Max Temperature 30 °F 38 °F 50 °F (2000)
Min Temperature 24 °F 31 °F 21 °F (1996)
Degree Days  
Heating Degree Days 38    
Moisture  
Dew Point 21 °F    
Average Humidity 78    
Maximum Humidity 93    
Minimum Humidity 49    
Precipitation  
Precipitation 0.00 in - - ()
Sea Level Pressure  
Sea Level Pressure 30.02 in    
Wind  
Wind Speed 8 mph ()    
Max Wind Speed 15 mph    
Max Gust Speed -    
Visibility 7.7 miles    
Events Snow    
Averages and records for this station are not official NWS values.
T = Trace of Precipitation, MM = Missing Value Source: Averaged Metar Reports

Daily Weather History Graph

Daily Weather History Graph

Search for Another Location

Airport or City:

Trip Planner

Search our weather history database for the weather conditions in past years. The results will help you decide how hot, cold, wet, or windy it might be!

Date:

Astronomy

Dec. 13, 2012 Rise Set
Actual Time 8:30 AM CET 3:36 PM CET
Civil Twilight 7:44 AM CET 4:23 PM CET
Nautical Twilight 6:55 AM CET 5:11 PM CET
Astronomical Twilight 6:10 AM CET 5:56 PM CET
Moon 8:18 AM CET (12/13) 4:03 PM CET (12/13)
Length of Visible Light 8h 39m
Length of Day
7h 06m
New Moon, 0% of the Moon is Illuminated
Dec 13
New Moon
Dec 20
First Quarter
Dec 28
Full
Jan 5
Last Quarter
Jan 11
New

Hourly Weather History & Observations

Time (CET) Temp. Windchill Dew Point Humidity Pressure Visibility Wind Dir Wind Speed Gust Speed Precip Events Conditions
12:20 AM 26.6 °F 19.1 °F 17.6 °F 69% 30.09 in 6.2 mi ESE 6.9 mph - N/A   Mostly Cloudy
12:50 AM 26.6 °F 20.0 °F 17.6 °F 69% 30.06 in 6.2 mi East 5.8 mph - N/A   Mostly Cloudy
1:00 AM 27 °F - 17 °F 54% 30.09 in 16 mi East 4.6 mph - -   Overcast
1:20 AM 26.6 °F 20.0 °F 17.6 °F 69% 30.06 in 6.2 mi ESE 5.8 mph - N/A   Mostly Cloudy
1:50 AM 26.6 °F 20.0 °F 17.6 °F 69% 30.06 in 6.2 mi East 5.8 mph - N/A   Mostly Cloudy
2:20 AM 26.6 °F 20.0 °F 17.6 °F 69% 30.06 in 6.2 mi East 5.8 mph - N/A   Mostly Cloudy
2:50 AM 26.6 °F 18.2 °F 17.6 °F 69% 30.06 in 6.2 mi ENE 8.1 mph - N/A   Mostly Cloudy
3:20 AM 26.6 °F 20.0 °F 19.4 °F 74% 30.06 in 6.2 mi East 5.8 mph - N/A   Mostly Cloudy
3:50 AM 24.8 °F 15.3 °F 19.4 °F 80% 30.04 in 6.2 mi East 9.2 mph - N/A   Mostly Cloudy
4:00 AM 25 °F - 19 °F 70% 30.06 in 16 mi East 8.1 mph - -   Overcast
4:20 AM 24.8 °F 16.1 °F 19.4 °F 80% 30.04 in 6.2 mi East 8.1 mph - N/A   Mostly Cloudy
4:50 AM 24.8 °F 15.3 °F 19.4 °F 80% 30.04 in 6.2 mi East 9.2 mph - N/A   Mostly Cloudy
5:20 AM 24.8 °F 16.1 °F 21.2 °F 86% 30.04 in 6.2 mi East 8.1 mph - N/A   Mostly Cloudy
5:50 AM 26.6 °F 17.5 °F 17.6 °F 69% 30.04 in 6.2 mi East 9.2 mph - N/A   Mostly Cloudy
6:20 AM 26.6 °F 18.2 °F 17.6 °F 69% 30.04 in 6.2 mi East 8.1 mph - N/A   Mostly Cloudy
6:50 AM 26.6 °F 18.2 °F 15.8 °F 64% 30.04 in 6.2 mi ESE 8.1 mph - N/A   Mostly Cloudy
7:00 AM 27 °F - 15 °F 49% 30.04 in 19 mi ESE 8.1 mph - -   Overcast
7:20 AM 26.6 °F 18.2 °F 15.8 °F 64% 30.04 in 6.2 mi ESE 8.1 mph - N/A   Overcast
7:50 AM 26.6 °F 18.2 °F 17.6 °F 69% 30.04 in 6.2 mi East 8.1 mph - N/A   Mostly Cloudy
8:20 AM 26.6 °F 17.5 °F 17.6 °F 69% 30.04 in 6.2 mi East 9.2 mph - N/A   Mostly Cloudy
8:50 AM 24.8 °F 15.3 °F 19.4 °F 80% 30.04 in 6.2 mi East 9.2 mph - N/A   Mostly Cloudy
9:20 AM 24.8 °F 16.1 °F 19.4 °F 80% 30.04 in 6.2 mi East 8.1 mph - N/A   Mostly Cloudy
9:50 AM 24.8 °F 15.3 °F 21.2 °F 86% 30.04 in 6.2 mi East 9.2 mph - N/A   Mostly Cloudy
10:00 AM 25 °F - 21 °F 77% 30.04 in 19 mi East 9.2 mph - -   Mostly Cloudy
10:20 AM 24.8 °F 14.6 °F 21.2 °F 86% 30.04 in 6.2 mi East 10.4 mph - N/A   Mostly Cloudy
10:50 AM 24.8 °F 15.3 °F 21.2 °F 86% 30.01 in 6.2 mi East 9.2 mph - N/A   Mostly Cloudy
11:20 AM 24.8 °F 15.3 °F 21.2 °F 86% 30.01 in 6.2 mi East 9.2 mph - N/A Snow Light Snow
11:50 AM 24.8 °F 15.3 °F 19.4 °F 80% 30.01 in 6.2 mi East 9.2 mph - N/A   Mostly Cloudy
12:20 PM 26.6 °F 17.5 °F 21.2 °F 80% 30.01 in 6.2 mi East 9.2 mph - N/A Snow Light Snow
12:50 PM 26.6 °F 18.2 °F 21.2 °F 80% 30.01 in 6.2 mi East 8.1 mph - N/A   Scattered Clouds
1:00 PM 26 °F - 20 °F 71% 30.01 in 19 mi East 8.1 mph - - Snow Light Snow
1:20 PM 26.6 °F 19.1 °F 21.2 °F 80% 30.01 in 6.2 mi East 6.9 mph - N/A   Scattered Clouds
1:50 PM 26.6 °F 17.5 °F 21.2 °F 80% 30.01 in 6.2 mi East 9.2 mph - N/A   Mostly Cloudy
2:20 PM 26.6 °F 19.1 °F 23.0 °F 86% 30.01 in 6.2 mi East 6.9 mph - N/A   Scattered Clouds
2:50 PM 26.6 °F 19.1 °F 23.0 °F 86% 29.98 in 6.2 mi East 6.9 mph - N/A   Partly Cloudy
3:20 PM 24.8 °F 16.1 °F 23.0 °F 93% 29.98 in 6.2 mi East 8.1 mph - N/A   Partly Cloudy
3:50 PM 24.8 °F 15.3 °F 23.0 °F 93% 29.98 in 6.2 mi East 9.2 mph - N/A   Scattered Clouds
4:00 PM 26 °F - 22 °F 80% 30.01 in 19 mi East 9.2 mph - -   Partly Cloudy
4:20 PM 24.8 °F 14.6 °F 23.0 °F 93% 29.98 in 6.2 mi East 10.4 mph - N/A   Scattered Clouds
4:50 PM 26.6 °F 16.8 °F 24.8 °F 93% 29.98 in 6.2 mi East 10.4 mph - N/A   Mostly Cloudy
5:20 PM 28.4 °F 19.1 °F 24.8 °F 86% 29.98 in 6.2 mi East 10.4 mph - N/A   Mostly Cloudy
5:50 PM 28.4 °F 19.1 °F 23.0 °F 80% 29.98 in 6.2 mi ESE 10.4 mph - N/A   Mostly Cloudy
6:20 PM 28.4 °F 19.1 °F 24.8 °F 86% 29.98 in 6.2 mi East 10.4 mph - N/A   Mostly Cloudy
6:50 PM 28.4 °F 19.1 °F 24.8 °F 86% 29.98 in 6.2 mi East 10.4 mph - N/A   Mostly Cloudy
7:00 PM 28 °F - 25 °F 83% 29.99 in 11 mi East 10.4 mph - -   Mostly Cloudy
7:20 PM 28.4 °F 19.7 °F 24.8 °F 86% 29.98 in 6.2 mi East 9.2 mph - N/A   Mostly Cloudy
7:50 PM 28.4 °F 20.4 °F 24.8 °F 86% 29.98 in 6.2 mi East 8.1 mph - N/A   Mostly Cloudy
8:20 PM 28.4 °F 18.5 °F 24.8 °F 86% 29.98 in 6.2 mi East 11.5 mph - N/A   Mostly Cloudy
8:50 PM 28.4 °F 18.5 °F 24.8 °F 86% 29.98 in 6.2 mi East 11.5 mph - N/A   Mostly Cloudy
9:20 PM 28.4 °F 19.1 °F 24.8 °F 86% 29.98 in 6.2 mi East 10.4 mph - N/A   Mostly Cloudy
9:50 PM 28.4 °F 18.5 °F 23.0 °F 80% 29.98 in 6.2 mi East 11.5 mph - N/A   Mostly Cloudy
10:00 PM 28 °F - 23 °F 76% 29.98 in 12 mi East 11.5 mph - -   Overcast
10:20 PM 28.4 °F 18.5 °F 23.0 °F 80% 29.98 in 6.2 mi East 11.5 mph - N/A   Mostly Cloudy
10:50 PM 30.2 °F 19.8 °F 23.0 °F 75% 29.98 in 6.2 mi ESE 13.8 mph - N/A   Mostly Cloudy
11:20 PM 28.4 °F 17.0 °F 24.8 °F 86% 29.98 in 6.2 mi ESE 15.0 mph - N/A   Mostly Cloudy
11:50 PM 30.2 °F 19.8 °F 24.8 °F 80% 29.98 in 6.2 mi East 13.8 mph - N/A   Mostly Cloudy